EW6614 Weather Reports


Display with metric or nautical units.
time (UTC)temp
F
wind
direction
speed
MPH
gust
MPH
rain 1hr
in
rain 24hr
in
rain mn
in
humidity
%
barometer
mb
20260510164555 80 163 7.0 12.0 0.00 0.00 0.00 48 1013.8
20260510164506 81 162 7.0 11.0 0.00 0.00 0.00 60 1013.5
20260510163149 80 119 6.0 11.0 0.00 0.00 0.00 49 1013.6
20260510163003 80 204 5.0 11.0 0.00 0.00 0.00 60 1013.3
20260510161607 80 184 5.0 10.0 0.00 0.00 0.00 60 1013.6
20260510161602 80 192 5.0 11.0 0.00 0.00 0.00 48 1013.8
20260510160135 80 144 4.0 9.0 0.00 0.00 0.00 48 1014.0
20260510160002 80 157 4.0 8.0 0.00 0.00 0.00 61 1013.9
20260510154613 79 119 3.0 9.0 0.00 0.00 0.00 50 1014.0
20260510154559 79 123 4.0 8.0 0.00 0.00 0.00 61 1013.9
20260510153101 79 168 2.0 6.0 0.00 0.00 0.00 61 1014.0
20260510153059 79 182 3.0 8.0 0.00 0.00 0.00 50 1014.2
20260510151556 78 163 5.0 9.0 0.00 0.00 0.00 50 1014.2
20260510150109 76 163 1.0 5.0 0.00 0.00 0.00 51 1014.4
20260510144608 75 186 1.0 7.0 0.00 0.00 0.00 50 1014.4
20260510144548 75 186 2.0 4.0 0.00 0.00 0.00 62 1014.4
20260510143111 74 113 3.0 9.0 0.00 0.00 0.00 50 1014.6
20260510143051 74 112 2.0 9.0 0.00 0.00 0.00 61 1014.5
20260510141604 72 178 2.0 6.0 0.00 0.00 0.00 48 1014.7
20260510141541 72 176 2.0 6.0 0.00 0.00 0.00 59 1014.6
20260510140109 71 175 4.0 10.0 0.00 0.00 0.00 51 1014.6
20260510140036 70 150 5.0 10.0 0.00 0.00 0.00 62 1014.5
20260510134607 69 121 1.0 5.0 0.00 0.00 0.00 51 1015.1
20260510134535 69 129 1.0 5.0 0.00 0.00 0.00 63 1015.0
20260510133059 68 0 1.0 8.0 0.00 0.00 0.00 51 1015.8
20260510133036 68 360 0.0 8.0 0.00 0.00 0.00 62 1015.7
20260510131555 68 0 0.0 10.0 0.00 0.00 0.00 51 1016.0
20260510131533 68 11 0.0 10.0 0.00 0.00 0.00 62 1015.8
20260510130057 68 351 4.0 10.0 0.00 0.00 0.00 51 1015.9
20260510130031 68 11 3.0 10.0 0.00 0.00 0.00 62 1015.6
20260510124555 68 348 5.0 12.0 0.00 0.00 0.00 51 1015.7
20260510124528 68 5 5.0 12.0 0.00 0.00 0.00 62 1015.5
20260510123056 69 0 0.0 0.0 0.00 0.00 0.00 51 1015.0
20260510123028 69 360 0.0 0.0 0.00 0.00 0.00 63 1014.6
20260510121558 68 0 0.0 0.0 0.00 0.00 0.00 51 1014.8
20260510121524 68 113 0.0 0.0 0.00 0.00 0.00 62 1014.5
20260510120104 67 0 0.0 0.0 0.00 0.00 0.00 51 1014.6
20260510120025 67 360 0.0 0.0 0.00 0.00 0.00 62 1014.4
20260510114555 67 0 0.0 0.0 0.00 0.00 0.00 51 1014.1
20260510114521 67 360 0.0 0.0 0.00 0.00 0.00 62 1013.9
20260510113055 68 0 0.0 0.0 0.00 0.00 0.00 50 1013.9
20260510113019 68 360 0.0 0.0 0.00 0.00 0.00 62 1013.6
20260510111606 68 0 0.0 2.0 0.00 0.00 0.00 50 1013.4
20260510111516 68 360 0.0 0.0 0.00 0.00 0.00 62 1013.2
20260510110056 68 0 0.0 1.0 0.00 0.00 0.00 50 1013.0
20260510110020 68 360 0.0 0.0 0.00 0.00 0.00 62 1012.7
20260510104554 68 0 0.0 3.0 0.00 0.00 0.00 50 1012.8
20260510104516 68 360 0.0 3.0 0.00 0.00 0.00 62 1012.5
20260510103057 68 0 0.0 0.0 0.00 0.00 0.00 50 1013.2
20260510103016 68 360 0.0 0.0 0.00 0.00 0.00 62 1013.0
20260510101554 68 0 0.0 0.0 0.00 0.00 0.00 50 1013.3
20260510101514 68 360 0.0 0.0 0.00 0.00 0.00 62 1013.1
20260510100057 68 0 0.0 2.0 0.00 0.00 0.00 50 1013.2
20260510100013 68 360 0.0 0.0 0.00 0.00 0.00 62 1013.0
20260510094559 68 0 0.0 3.0 0.00 0.00 0.00 50 1013.1
20260510094514 68 360 0.0 3.0 0.00 0.00 0.00 62 1012.8
20260510093110 68 360 2.0 3.0 0.00 0.00 0.00 50 1012.8
20260510093007 68 360 2.0 3.0 0.00 0.00 0.00 62 1012.6
20260510091555 68 0 0.0 0.0 0.00 0.00 0.00 50 1012.0
20260510091504 68 360 0.0 0.0 0.00 0.00 0.00 62 1011.8
20260510090117 68 360 1.0 4.0 0.00 0.00 0.00 50 1011.4
20260510090005 68 360 1.0 4.0 0.00 0.00 0.00 62 1011.1
20260510084556 68 0 0.0 0.0 0.00 0.00 0.00 50 1011.0
20260510084501 68 360 0.0 0.0 0.00 0.00 0.00 62 1010.7
20260510083109 68 0 0.0 4.0 0.00 0.00 0.00 50 1010.7
20260510083100 68 360 0.0 4.0 0.00 0.00 0.00 62 1010.4
20260510081624 68 360 3.0 6.0 0.00 0.00 0.00 62 1010.5
20260510081608 68 360 2.0 8.0 0.00 0.00 0.00 50 1010.9
20260510080059 68 360 2.0 6.0 0.00 0.00 0.00 62 1010.7
20260510080055 68 360 2.0 5.0 0.00 0.00 0.00 50 1011.0
20260510074602 68 360 2.0 4.0 0.00 0.00 0.00 50 1011.3
20260510074558 68 360 2.0 4.0 0.00 0.00 0.00 62 1010.9
20260510073104 67 360 1.0 6.0 0.00 0.00 0.00 62 1010.9
20260510073057 67 360 2.0 6.0 0.00 0.00 0.00 50 1011.2
20260510071559 67 360 2.0 5.0 0.00 0.00 0.00 62 1010.9
20260510071556 67 360 2.0 5.0 0.00 0.00 0.00 50 1011.3
20260510070056 67 360 3.0 6.0 0.00 0.00 0.00 62 1010.7
20260510064602 68 360 2.0 10.0 0.00 0.00 0.00 50 1011.0
20260510064600 68 360 2.0 10.0 0.00 0.00 0.00 62 1010.8
20260510063054 68 360 2.0 5.0 0.00 0.00 0.00 62 1010.6
20260510061558 68 360 3.0 9.0 0.00 0.00 0.00 50 1011.0
20260510061554 68 360 3.0 9.0 0.00 0.00 0.00 62 1010.7
20260510060056 68 360 4.0 9.0 0.00 0.00 0.00 50 1010.9
20260510054554 68 360 2.0 5.0 0.00 0.00 0.00 50 1011.3
20260510054552 68 360 2.0 5.0 0.00 0.00 0.00 62 1010.9
20260510053105 68 360 1.0 5.0 0.00 0.00 0.00 62 1010.8
20260510053056 68 360 1.0 5.0 0.00 0.00 0.00 51 1011.0
20260510051601 68 360 0.0 3.0 0.00 0.00 0.00 63 1010.9
20260510051557 68 0 0.0 3.0 0.00 0.00 0.00 51 1011.1
20260510050058 67 360 0.0 0.0 0.00 0.00 0.00 64 1010.8
20260510050055 67 0 0.0 0.0 0.00 0.00 0.00 52 1011.0
20260510044637 67 0 0.0 0.0 0.00 0.00 0.00 53 1011.0
20260510044556 67 360 0.0 0.0 0.00 0.00 0.00 64 1010.7
20260510043054 67 0 0.0 1.0 0.00 0.00 0.00 53 1010.9
20260510041555 67 0 0.0 1.0 0.00 0.00 0.00 53 1011.0
20260510041543 67 360 0.0 1.0 0.00 0.00 0.00 65 1010.8
20260510040057 68 0 0.0 3.0 0.00 0.00 0.00 53 1011.2
20260510040045 68 360 0.0 2.0 0.00 0.00 0.00 65 1010.9
20260510034554 68 0 0.0 3.0 0.00 0.00 0.00 54 1011.2
20260510034543 68 360 0.0 2.0 0.00 0.00 0.00 65 1010.9
20260510033100 68 0 1.0 5.0 0.00 0.00 0.00 54 1011.2
20260510033055 68 360 1.0 5.0 0.00 0.00 0.00 65 1011.0
20260510031555 69 360 0.0 3.0 0.00 0.00 0.00 55 1010.9
20260510031540 69 360 0.0 3.0 0.00 0.00 0.00 66 1010.8
20260510030053 69 360 0.0 4.0 0.00 0.00 0.00 55 1011.0
20260510030045 69 360 0.0 4.0 0.00 0.00 0.00 66 1010.8
20260510024552 69 360 2.0 4.0 0.00 0.00 0.00 55 1010.9
20260510024535 69 360 1.0 4.0 0.00 0.00 0.00 67 1010.8
20260510023102 69 360 0.0 4.0 0.00 0.00 0.00 56 1010.7
20260510023032 69 360 0.0 4.0 0.00 0.00 0.00 67 1010.5
20260510021554 70 360 1.0 3.0 0.00 0.00 0.00 56 1010.5
20260510021534 70 360 1.0 3.0 0.00 0.00 0.00 67 1010.3
20260510020056 70 0 1.0 4.0 0.00 0.00 0.00 56 1010.3
20260510020033 70 360 1.0 4.0 0.00 0.00 0.00 67 1010.2
20260510014557 71 360 0.0 7.0 0.00 0.00 0.00 56 1010.1
20260510014538 71 360 0.0 5.0 0.00 0.00 0.00 67 1009.9
20260510013056 71 150 1.0 6.0 0.00 0.00 0.00 56 1009.8
20260510013034 71 150 1.0 5.0 0.00 0.00 0.00 67 1009.5
20260510011559 72 168 2.0 12.0 0.00 0.00 0.00 56 1009.5
20260510011531 72 168 2.0 10.0 0.00 0.00 0.00 67 1009.2
20260510010123 72 153 5.0 12.0 0.00 0.00 0.00 56 1009.3
20260510010029 72 117 6.0 11.0 0.00 0.00 0.00 67 1009.0
20260510004554 73 123 4.0 11.0 0.00 0.00 0.00 56 1009.3
20260510004531 73 146 2.0 10.0 0.00 0.00 0.00 67 1009.0
20260510003058 73 98 5.0 14.0 0.00 0.00 0.00 55 1009.3
20260510003027 73 157 5.0 14.0 0.00 0.00 0.00 67 1009.0
20260510001553 75 133 6.0 15.0 0.00 0.00 0.00 55 1009.2
20260510001527 75 162 7.0 14.0 0.00 0.00 0.00 66 1008.8
20260510000054 76 96 7.0 15.0 0.00 0.00 0.00 53 1009.0
20260510000026 76 122 7.0 15.0 0.00 0.00 0.00 64 1008.7
20260509234618 80 105 9.0 19.0 0.00 0.00 0.00 50 1009.0
20260509234536 80 105 8.0 19.0 0.00 0.00 0.00 61 1008.5
20260509233058 81 126 4.0 11.0 0.00 0.00 0.00 49 1008.5
20260509233023 81 128 3.0 11.0 0.00 0.00 0.00 61 1008.2
20260509231553 82 105 3.0 8.0 0.00 0.00 0.00 49 1008.1
20260509231523 82 110 2.0 8.0 0.00 0.00 0.00 60 1007.9
20260509230023 83 73 3.0 8.0 0.00 0.00 0.00 59 1007.8
20260509224553 84 62 2.0 5.0 0.00 0.00 0.00 48 1007.9
20260509224521 84 62 2.0 5.0 0.00 0.00 0.00 59 1007.7
20260509223056 84 0 0.0 3.0 0.00 0.00 0.00 49 1007.7
20260509223022 84 103 0.0 3.0 0.00 0.00 0.00 60 1007.5
20260509221600 84 0 0.0 4.0 0.00 0.00 0.00 48 1007.4
20260509221520 84 106 1.0 4.0 0.00 0.00 0.00 60 1007.3
20260509220107 83 0 0.0 3.0 0.00 0.00 0.00 49 1007.3
20260509220017 83 110 0.0 0.0 0.00 0.00 0.00 61 1007.1
20260509214553 82 0 0.0 2.0 0.00 0.00 0.00 50 1007.4
20260509214516 82 110 0.0 1.0 0.00 0.00 0.00 61 1007.2
20260509213100 83 110 2.0 6.0 0.00 0.00 0.00 49 1007.4
20260509213014 83 131 2.0 5.0 0.00 0.00 0.00 60 1007.3
20260509211557 83 0 0.0 6.0 0.00 0.00 0.00 50 1007.7
20260509211513 83 355 0.0 4.0 0.00 0.00 0.00 61 1007.6
20260509210057 83 131 2.0 7.0 0.00 0.00 0.00 49 1007.8
20260509210018 83 140 2.0 7.0 0.00 0.00 0.00 61 1007.7
20260509204558 83 78 3.0 8.0 0.00 0.00 0.00 49 1008.0
20260509204510 83 78 3.0 8.0 0.00 0.00 0.00 61 1007.9
20260509203124 83 93 1.0 4.0 0.00 0.00 0.00 49 1008.1
20260509203007 83 90 1.0 4.0 0.00 0.00 0.00 61 1008.0
20260509201604 82 80 1.0 6.0 0.00 0.00 0.00 51 1008.2
20260509201504 82 80 1.0 6.0 0.00 0.00 0.00 62 1008.2
20260509200002 82 124 4.0 10.0 0.00 0.00 0.00 63 1008.4
20260509194601 81 85 2.0 4.0 0.00 0.00 0.00 62 1008.3
20260509194555 81 85 0.0 3.0 0.00 0.00 0.00 51 1008.4
20260509193116 80 0 0.0 6.0 0.00 0.00 0.00 51 1008.7
20260509193114 80 77 0.0 3.0 0.00 0.00 0.00 62 1008.5
20260509191612 80 0 1.0 4.0 0.00 0.00 0.00 51 1008.8
20260509191555 80 199 0.0 4.0 0.00 0.00 0.00 63 1008.7
20260509190056 79 0 1.0 7.0 0.00 0.00 0.00 51 1009.1
20260509190054 79 200 0.0 6.0 0.00 0.00 0.00 63 1008.9
20260509184605 80 161 4.0 8.0 0.00 0.00 0.00 62 1008.9
20260509184559 80 161 3.0 8.0 0.00 0.00 0.00 50 1009.2
20260509183055 78 161 3.0 5.0 0.00 0.00 0.00 49 1009.3
20260509183050 78 161 4.0 5.0 0.00 0.00 0.00 61 1009.1
20260509181559 77 169 2.0 4.0 0.00 0.00 0.00 48 1009.6
20260509181548 77 196 2.0 6.0 0.00 0.00 0.00 60 1009.2
20260509180104 76 329 1.0 3.0 0.00 0.00 0.00 47 1009.9
20260509180044 76 329 1.0 3.0 0.00 0.00 0.00 59 1009.6
20260509174558 75 0 0.0 2.0 0.00 0.00 0.00 49 1009.9
20260509174541 75 165 0.0 2.0 0.00 0.00 0.00 61 1009.8
20260509173101 75 0 0.0 4.0 0.00 0.00 0.00 49 1010.2
20260509173044 75 165 0.0 3.0 0.00 0.00 0.00 61 1010.1
20260509171555 75 0 0.0 4.0 0.00 0.00 0.00 49 1010.2
20260509171544 75 165 0.0 3.0 0.00 0.00 0.00 61 1010.1
20260509170101 75 166 1.0 6.0 0.00 0.00 0.00 50 1010.4
20260509170038 75 166 1.0 6.0 0.00 0.00 0.00 61 1010.3